Location: Stara Lesna
(49.1528°N, 20.2911°E)
Time: 02:58:50
(UTC+02:00)

GENESIS II - Pass Details

Date: 13 July 2020
Orbit: 487 x 540 km, 64.5° (Epoch: 11 August)

Event Time Altitude Azimuth Distance (km) Brightness Sun altitude
Exits shadow 00:43:18 45° 216° (SW) 741 4.6 -19.1°
Maximum altitude 00:44:29 88° 133° (SE) 547 4.2 -19.1°
Drops below altitude 10° 00:48:34 10° 40° (NE) 1,811 7.7 -19.0°
Sets 00:50:46 0° 40° (NE) 2,705 8.7 -19.0°
